User: anonymous   Login
Location: Newark
(48.8833°N, 0.9236°W)
Time: 10:59:23
(UTC+00:00)
Language:

Tiros 1 despin weight - Orbit

View from above orbital plane
View from above orbital plane
View from above satellite
View from above satellite

Ground track
Ground track

The orbit data is extracted from the following two-line orbital elements,

1 00115U 60002D   21026.71224445  .00000134  00000-0  42988-4 0  9998
2 00115  48.1663 280.5937 0033941 153.3334 206.9333 14.83687894224960
Epoch (UTC): 26 January 2021 17:05:37
Eccentricity: 0.0033941
inclination: 48.1663°
perigee height: 594 km
apogee height: 641 km
right ascension of ascending node: 280.5937°
argument of perigee: 153.3334°
revolutions per day: 14.83687894
mean anomaly at epoch: 206.9333°
orbit number at epoch: 22496

The dashed part of the orbit path shows where the satellite is in the earth's shadow,  

DLR